Flag for Ukraine Weather past 2 weeks in Luhansk, Ukraine

Now
88 °F

Passing clouds.


Feels Like: 85 °F
Forecast: 63 / 83 °F
Wind: 6 mph from Southwest

Location: Rostov-Na-Donu

Current Time: Aug 22, 2014 at 11:31:58 AM

Latest Report: Aug 22, 2014 at 11:00 AM


Visibility: N/A

Pressure: 29.92 "Hg

Humidity: 27%

Dew point: 50 °F

Location of LuhanskLocation

Historic Weather in Luhansk — Graph

°F

Luhansk temperature yesterday

Maximum temperature yesterday: 88 °F (at 2:30 PM)
Minimum temperature yesterday: 66 °F (at 5:30 AM)
Average temperature yesterday: 78 °F

Past Weeks' High & Low Weather Summary

 TemperatureHumidityPressure
High100 °F (Aug 15, 1:00 PM)88% (Aug 13, 6:00 AM)30.04 "Hg (Aug 13, 6:00 AM)
Low59 °F (Aug 20, 5:00 AM)13% (Aug 15, 1:30 PM)29.56 "Hg (Aug 18, 3:00 PM)
Average80 °F47%29.85 "Hg
* Reported Aug 7 10:00 AM — Aug 22 10:30 AM, Luhansk, Weather by CustomWeather, © 2014

Note: Actual official high and low records may vary slightly from our data, if they occured in-between our weather recording intervals... More about our weather records

Advertising

Luhansk weather history for previous 24 hours

 ConditionsComfort  
Time TempWeatherWind HumidityBarometerVisibility
10:30 AM
Aug 22
86 °FPassing clouds.6 mph31%29.92 "HgN/A
10:00 AM86 °FSunny.1 mph33%29.92 "Hg10 mi
9:30 AM84 °FSunny.1 mph35%29.92 "Hg10 mi
9:00 AM82 °FSunny.1 mph37%29.92 "Hg10 mi
8:30 AM79 °FSunny.1 mph42%29.95 "Hg10 mi
8:00 AM75 °FSunny.6 mph44%29.95 "Hg10 mi
7:30 AM73 °FSunny.6 mph47%29.95 "Hg10 mi
7:00 AM72 °FSunny.1 mph53%29.92 "Hg10 mi
6:30 AM68 °FSunny.3 mph60%29.92 "Hg10 mi
6:00 AM64 °FClear.1 mph64%29.92 "Hg10 mi
5:30 AM63 °FClear.No wind68%29.92 "Hg10 mi
5:00 AM63 °FClear.1 mph68%29.92 "Hg10 mi
4:30 AM63 °FClear.No wind68%29.92 "Hg10 mi
4:00 AM63 °FClear.No wind68%29.92 "Hg10 mi
3:30 AM64 °FClear.1 mph60%29.92 "Hg10 mi
3:00 AM68 °FClear.3 mph53%29.92 "Hg10 mi
2:30 AM68 °FClear.1 mph53%29.92 "Hg10 mi
2:00 AM70 °FClear.1 mph46%29.92 "Hg10 mi
1:30 AM66 °FClear.1 mph56%29.95 "Hg10 mi
1:00 AM66 °FPassing clouds.3 mph60%29.95 "HgN/A
12:30 AM66 °FPassing clouds.3 mph60%29.95 "HgN/A
12:00 AM68 °FPassing clouds.3 mph53%29.95 "HgN/A
11:30 PM
Aug 21
72 °FPassing clouds.3 mph47%29.95 "HgN/A
11:00 PM73 °FPassing clouds.3 mph44%29.95 "HgN/A
10:30 PM73 °FClear.3 mph44%29.95 "Hg10 mi
10:00 PM73 °FPassing clouds.3 mph44%29.95 "HgN/A
9:30 PM75 °FPassing clouds.3 mph44%29.95 "HgN/A
9:00 PM77 °FClear.3 mph42%29.95 "Hg10 mi
8:30 PM79 °FClear.3 mph37%29.95 "Hg10 mi
8:00 PM79 °FPassing clouds.3 mph39%29.95 "HgN/A
7:30 PM81 °FSunny.3 mph37%29.95 "Hg10 mi
7:00 PM82 °FPassing clouds.3 mph32%29.95 "HgN/A
6:30 PM84 °FSunny.1 mph31%29.95 "Hg10 mi
6:00 PM86 °FSunny.1 mph25%29.95 "Hg10 mi
5:30 PM88 °FSunny.1 mph24%29.95 "Hg10 mi
5:00 PM86 °FPassing clouds.3 mph25%29.95 "HgN/A
4:30 PM88 °FScattered clouds.1 mph24%29.95 "HgN/A
4:00 PM88 °FScattered clouds.1 mph25%29.95 "HgN/A
3:30 PM86 °FScattered clouds.6 mph27%29.95 "HgN/A
3:00 PM88 °FPartly sunny.6 mph25%29.98 "HgN/A
2:30 PM88 °FPartly sunny.3 mph27%29.98 "HgN/A
2:00 PM86 °FPartly sunny.6 mph27%29.98 "HgN/A
1:30 PM86 °FPartly sunny.6 mph29%29.98 "HgN/A
1:00 PM86 °FPartly sunny.3 mph29%29.98 "HgN/A
12:30 PM86 °FPartly sunny.6 mph31%30.01 "HgN/A
12:00 PM84 °FPartly sunny.3 mph33%30.01 "HgN/A
11:30 AM84 °FPartly sunny.6 mph33%30.01 "HgN/A
11:00 AM82 °FPartly sunny.3 mph40%30.01 "HgN/A
Weather by CustomWeather, © 2014

See weather overviewHow to use our weather pages